Regional Weather Roundup
Issued by NWS Tiyan, Guam

Home | Current Version | Previous Version | Text Only | Print | Product List | Glossary On
Versions: 1 2 3 4 5 6 7 8 9 10 11 12 13 14 15 16 17 18 19 20 21 22 23 24 25 26 27
000
ASGM40 PGUM 220312
RWRGUM
WEATHER ROUNDUP FOR THE MARIANAS
NATIONAL WEATHER SERVICE TIYAN GU
100 PM CHST TUE AUG 22 2017

GUZ001>004-220400-
MARIANA ISLANDS-

CITY           SKY/WX    TMP DP  RH WIND       PRES   REMARKS
GUAM AIRPORT   SUNNY     90  73  58 E12       29.87F HX  98
ANDERSEN AFB   PTSUNNY   86  75  70 E9        29.93F HX  95
ROTA AIRPORT   PTSUNNY   82  73  74 E17       29.87F
TINIAN AP      PTSUNNY   88  77  70 E12       29.84F HX 100
SAIPAN AP      MOSUNNY   91  79  66 E12       29.86F HX 107

$$





USA.gov is the U.S. government's official web portal to all federal, state and local government web resources and services.